Погода в Чорткове

Погода в Чорткове : погода сейчас, прогноз погоды и архив. Всё, что Вы хотите узнать о погоде в Чорткове!

Хотите узнать прогноз погоды в Чорткове? Тогда Вам сюда: Погода в Чорткове

Поиск расширенной информации на нашем сайте:

Другие новости

Новости СМИ2

Главная страница сайта

Новости сайта

03.07.2017

Напоминаем, что на нашем специализированном сайте Метеоцентр.Азия вы можете получить высокодетализированные автоматические прогнозы погоды по пунктам России, СНГ и мира в авиационном формате (включающие направление и скорость ветра, видимость, явления погоды, количество и форму облачности, нижнюю и верхнюю границу облачности).


Погода в Чорткове - сегодня

Время (UTC), дата Ветер
(°,м/с) 
Видим.   Явления Облачность Т
(°С)
Тd
(°С)
f(%) Тe
(°С)
Pmin
(гПа)
dP
(гПа)
Po
(мм)
O2
(г/м3)
Тmin Tmax R s Состояние
почвы
21 11.02.18 тихо ()   10 км    10/10 600 м 
[Sc]
-2.9 -4.6 88 -3  1012.5  0.4  729  297           
15 12.02.18 020 (С) 10 км    9/8 600 м средняя 
[Sc|Ac trans]
-0.8 -3.6 81 1013.8  0.2  731  295           
09 13.02.18 360 (С) 10 км    9/0 средняя 
[Ac trans]
-0.6 -2.7 86 1017.1  0.2  733  296           
15 13.02.18 360 (С) 10 км    8/3 600 м средняя, верхняя 
[Sc|Ac trans|Ci fib]
+0 -4.6 71 +1  1016.3  -0.3  732  295           
21 13.02.18 тихо ()   10 км    10/10 600 м 
[Sc]
-2.8 -4.8 86 -3  1017.1  0.1  733  298           
21 15.02.18 тихо ()   10 км    10/10 600 м 
[Sc]
-2.6 -4.2 89 -3  1027.1  0.3  740  301           
09 16.02.18 330 (СЗ) 10 км    10/10 300 м 
[St]
-0.9 -2.8 87 -2  1026  -0.1  739  298           
15 16.02.18 тихо ()   10 км    10/10 600 м 
[Sc]
+0.5 -3.1 77 +1  1025.4  0.2  739  297           
21 16.02.18 тихо ()   10 км    9/9 600 м 
[Sc]
-0.4 -2.5 86 -0  1026.4  0.1  740  298           
09 17.02.18 060 (СВ) 10 км    8/0 средняя, верхняя 
[Ac trans|Ci fib]
-0.7 -4.9 73 -2  1027.2  -0.7  740  299           
15 17.02.18 250 (З) 10 км    3/0 верхняя 
[Ci fib]
+1.2 -5.5 61 +2  1024.6  -1  739  296           
21 17.02.18 тихо ()   10 км    ясно 
-4.6 -7 83 -5  1024.2  -0.8  738  302           
03 18.02.18 тихо ()   10 км    6/0 средняя 
[Ac trans]
-4.8 -6.5 88 -5  1023.1  -1  737  302           
09 18.02.18 тихо ()   10 км    9/6 600 м средняя 
[Sc|Ac trans]
-0.5 -5 72 -1  1023.3  737  297           
03 19.02.18 тихо ()   10 км    10/10 600 м 
[Sc]
-3.5 -7.5 74 -4  1027.2  -0.3  740  302           
09 19.02.18 350 (С) 20000 м    5/0 средняя 
[Ac trans]
-2.2 -8.9 60 -2  1027.9  741  301           
15 19.02.18 230 (ЮЗ) 20000 м    1/0 верхняя 
[Ci fib]
-1.9 -10.3 53 -1  1026.7  -0.6  740  300           
21 19.02.18 тихо ()   10 км    ясно 
-7.5 -10.1 82 -8  1026.4  -0.7  739  306           
03 20.02.18 тихо ()   4000 м  дымка  ясно 
-10.4 -11 95 -10  1025.6  -0.9  738  309           
09 20.02.18 140 (ЮВ) 10 км    8/0 верхняя 
[Ci fib]
-4.8 -8 78 -8  1024.6  -0.1  738  303           
15 20.02.18 130 (ЮВ) 10 км    8/0 верхняя 
[Ci fib]
-2.8 -8.1 67 -5  1022.3  -0.9  737  300           
21 20.02.18 140 (ЮВ) 10 км    8/0 верхняя 
[Ci fib]
-4.2 -7.2 80 -5  1021.9  -0.5  736  301           
03 21.02.18 110 (В) 10 км    9/8 600 м средняя 
[Sc|Ac trans]
-2.5 -5.4 80 -5  1019.9  -0.9  735  299           
09 24.02.18 340 (С) 10 км    8/3 600 м средняя, верхняя 
[Cu med, cong|Ac trans|Ci fib]
-6.5 -10.1 76 -6  1019.5  -0.3  734  303           
15 24.02.18 350 (С) 10 км    9/4 600 м кучево-дожд., верхняя 
[Cb calv|Ci fib]
-8.1 -12.7 69 -10  1019.7  0.5  734  305           
Время (UTC), дата Ветер
(°,м/с) 
Видим.   Явления Облачность Т
(°С)
Тd
(°С)
f(%) Тe
(°С)
Pmin
(гПа)
dP
(гПа)
Po
(мм)
O2
(г/м3)
Тmin Tmax R s Состояние
почвы

Для получения пояснительной информации подведите курсор к названию столбца.

ПОГОДА в Чорткове - архив

Всё, что Вы хотите узнать о погоде в Чорткове - удобно и подробно!

Выберите нужную дату (начиная с 1 января 2015* года) и нажмите кнопку "Найти".
Будут отображены архивные сводки погоды по пункту Чортков, начиная с указанной даты.


Отображать данные в формате CSV (для использования в таблицах Excel)


Внимание! Наш архив погоды предназначен исключительно для личного некоммерческого использования в познавательных целях. Если Вам необходимы официальные справки о состоянии погоды (для производственных, юридических, коммерческих и т.п. целей), обращайтесь в органы Росгидромета.

*Примечание: данная дата относится к архиву по метеостанциям СССР (Россия, СНГ, Балтия).
Архив по метеостанциям Зарубежной Европы и Азии (кроме Китая) хранится 10 дней, по другим регионам земного шара (Китай, Африка, Америка, Австралия, Океания) - 1 день.

Чортков - район местоположения метеостанции


Название, широта, долгота, высота метеостанции:
Чортков 49°ш. 25.8°д. 318 м над ур. моря [Украина]

Дополнительная информация

В oтличие oт бoльшинства пoгoдных сайтoв мы публикуем пoдрoбную метеoинфoрмацию в детальнoм прoфессиoнальнoм фoрмате.

Характеристики температуры и влажнoсти вoздуха измеряются на высoте 2 м в тени вдали oт зданий и деревьев.
Скoрoсть ветра измеряется на высoте 10 м (на урoвне рoста челoвека скoрoсть ветра ниже в 1.5-2 раза). Если метеoстанция нахoдится в гoрoде или в лесу, тo скoрoсть ветра занижена на 2-4 м/с пo сравнению с oткрытым местoм. Скoрoсть ветра над акватoриями крупных рек и oзёр, а также на вершинах хoлмoв на 2-5 м/с выше, чем в oбычных услoвиях.
Атмoсфернoе давление в разных тoчках местнoсти мoжет значительнo oтличаться oт давления на метеoстанции, в зависимoсти oт услoвий рельефа (при пoдъёме на 10 м давление пoнижается примернo на 1 мм рт.ст.).